Location: Artiguedieu
(43.5000°N, 0.5454°E)
Time: 10:32:02
(UTC+00:00)

Vanguard 1 Rocket - Pass Details

Date: 03 August 2021
Orbit: 650 x 4226 km, 34.3° (Epoch: 24 September)

Event Time Altitude Azimuth Distance (km) Brightness Sun altitude
Rises 11:40:42 0° 258° (WSW) 7,704 12.1 63.4°
Reaches altitude 10° 11:46:44 10° 255° (WSW) 6,196 11.8 63.6°
Maximum altitude 12:03:08 55° 185° (S) 2,300 11.9 63.9°
Drops below altitude 10° 12:11:32 10° 110° (ESE) 3,327 10.5 63.8°
Sets 12:13:47 0° 105° (ESE) 4,009 10.8 63.8°
